When you browse on this site, cookies collect data to enhance your experience and personalize the content and advertising you see.
Visit our Privacy Policy to learn more. By continuing to use the site, you agree to this use of cookies and data.
  • en France
  • Liste des pays
  • À 7 jours
  • Température de l'eau
  • Carte satellitaire
  • Carte météo
  • Widgets météo
  • user-avatar
    Se connecter

    Météo par heure à Mazari Sharif

    Ce jour, 19 Avril, Vendredi

    Heure Température Précipitation Vent Pression Humidité
    00:00 +18°C° 0.1 mm 2 m/s 655 mmHg 33%
    01:00 +18°C° 0.1 mm 2 m/s 655 mmHg 31%
    02:00 +18°C° 0 mm 2 m/s 655 mmHg 30%
    03:00 +17°C° 0 mm 2 m/s 654 mmHg 30%
    04:00 +17°C° 0 mm 2 m/s 654 mmHg 29%
    05:00 +18°C° 0 mm 2 m/s 654 mmHg 28%
    06:00 +21°C° 0 mm 1 m/s 655 mmHg 27%
    07:00 +22°C° 0 mm 1 m/s 655 mmHg 26%
    08:00 +23°C° 0 mm 2 m/s 656 mmHg 26%
    09:00 +24°C° 0 mm 2 m/s 656 mmHg 26%
    10:00 +24°C° 0 mm 3 m/s 656 mmHg 29%
    11:00 +24°C° 0.2 mm 3 m/s 656 mmHg 30%
    12:00 +25°C° 0.2 mm 3 m/s 655 mmHg 31%
    13:00 +25°C° 0.2 mm 2 m/s 655 mmHg 32%
    14:00 +24°C° 0.5 mm 2 m/s 655 mmHg 36%
    15:00 +23°C° 0.5 mm 1 m/s 654 mmHg 40%
    16:00 +24°C° 0 mm 1 m/s 654 mmHg 41%
    17:00 +23°C° 0.2 mm 1 m/s 654 mmHg 44%
    18:00 +21°C° 0.2 mm 2 m/s 654 mmHg 47%
    19:00 +20°C° 0.2 mm 2 m/s 654 mmHg 49%
    20:00 +20°C° 0 mm 2 m/s 654 mmHg 51%
    21:00 +19°C° 0 mm 2 m/s 654 mmHg 52%
    22:00 +20°C° 0 mm 1 m/s 654 mmHg 54%
    23:00 +19°C° 0.3 mm 1 m/s 654 mmHg 55%

    Demain, 20 Avril, Samedi

    Heure Température Précipitation Vent Pression Humidité
    00:00 +19°C° 0.3 mm 1 m/s 654 mmHg 56%
    01:00 +18°C° 0.3 mm 1 m/s 654 mmHg 57%
    02:00 +18°C° 0.2 mm 1 m/s 653 mmHg 59%
    03:00 +16°C° 0.2 mm 1 m/s 653 mmHg 60%
    04:00 +16°C° 0.2 mm 1 m/s 653 mmHg 61%
    05:00 +18°C° 0.2 mm 1 m/s 653 mmHg 55%
    06:00 +19°C° 0.2 mm 2 m/s 653 mmHg 49%
    07:00 +20°C° 0.2 mm 2 m/s 654 mmHg 43%
    08:00 +23°C° 0.1 mm 2 m/s 654 mmHg 38%
    09:00 +24°C° 0.1 mm 2 m/s 654 mmHg 33%
    10:00 +26°C° 0.1 mm 2 m/s 654 mmHg 27%
    11:00 +26°C° 0 mm 2 m/s 654 mmHg 28%
    12:00 +26°C° 0 mm 3 m/s 654 mmHg 29%
    13:00 +26°C° 0 mm 3 m/s 653 mmHg 29%
    14:00 +26°C° 0 mm 3 m/s 653 mmHg 30%
    15:00 +26°C° 0 mm 2 m/s 652 mmHg 32%
    16:00 +25°C° 0 mm 1 m/s 652 mmHg 33%
    17:00 +25°C° 0 mm 2 m/s 652 mmHg 35%
    18:00 +24°C° 0 mm 2 m/s 652 mmHg 37%
    19:00 +22°C° 0 mm 3 m/s 652 mmHg 39%
    20:00 +21°C° 0 mm 2 m/s 652 mmHg 41%
    21:00 +21°C° 0 mm 2 m/s 652 mmHg 42%
    22:00 +22°C° 0 mm 1 m/s 652 mmHg 44%
    23:00 +21°C° 0 mm 1 m/s 652 mmHg 43%

    Après-demain, 21 Avril, Dimanche

    Heure Température Précipitation Vent Pression Humidité
    00:00 +21°C° 0 mm 1 m/s 652 mmHg 41%
    01:00 +20°C° 0 mm 2 m/s 652 mmHg 40%
    02:00 +19°C° 0.4 mm 2 m/s 651 mmHg 44%
    03:00 +18°C° 0.4 mm 2 m/s 651 mmHg 49%
    04:00 +17°C° 0.4 mm 2 m/s 651 mmHg 53%
    05:00 +17°C° 0.3 mm 3 m/s 652 mmHg 62%
    06:00 +15°C° 0.3 mm 4 m/s 652 mmHg 72%
    07:00 +14°C° 0.3 mm 5 m/s 653 mmHg 81%
    08:00 +14°C° 0.1 mm 5 m/s 653 mmHg 81%
    09:00 +14°C° 0.1 mm 5 m/s 653 mmHg 80%
    10:00 +14°C° 0.1 mm 4 m/s 654 mmHg 79%
    11:00 +14°C° 0.4 mm 4 m/s 654 mmHg 76%
    12:00 +14°C° 0.4 mm 5 m/s 654 mmHg 73%
    13:00 +14°C° 0.4 mm 5 m/s 654 mmHg 70%
    14:00 +14°C° 0.4 mm 4 m/s 654 mmHg 71%
    15:00 +14°C° 0.4 mm 4 m/s 653 mmHg 72%
    16:00 +13°C° 0.4 mm 4 m/s 653 mmHg 73%
    17:00 +13°C° 0.6 mm 4 m/s 654 mmHg 74%
    18:00 +12°C° 0.6 mm 3 m/s 654 mmHg 75%
    19:00 +12°C° 0.6 mm 3 m/s 654 mmHg 76%
    20:00 +12°C° 0.3 mm 3 m/s 655 mmHg 77%
    21:00 +11°C° 0.3 mm 3 m/s 655 mmHg 77%
    22:00 +11°C° 0.3 mm 3 m/s 655 mmHg 78%
    23:00 +12°C° 0.4 mm 2 m/s 655 mmHg 79%

    22 Avril, Lundi

    Heure Température Précipitation Vent Pression Humidité
    00:00 +12°C° 0.4 mm 2 m/s 655 mmHg 79%
    01:00 +12°C° 0.4 mm 2 m/s 655 mmHg 80%
    02:00 +10°C° 0.1 mm 2 m/s 655 mmHg 80%
    03:00 +11°C° 0.1 mm 1 m/s 655 mmHg 81%
    04:00 +11°C° 0.1 mm 1 m/s 655 mmHg 82%
    05:00 +12°C° 0 mm 1 m/s 656 mmHg 78%
    06:00 +12°C° 0 mm 1 m/s 656 mmHg 74%
    07:00 +13°C° 0 mm 1 m/s 656 mmHg 70%
    08:00 +15°C° 0 mm 2 m/s 657 mmHg 64%
    09:00 +16°C° 0 mm 2 m/s 657 mmHg 59%
    10:00 +18°C° 0 mm 2 m/s 657 mmHg 53%
    11:00 +19°C° 0 mm 3 m/s 657 mmHg 49%
    12:00 +20°C° 0 mm 3 m/s 656 mmHg 45%
    13:00 +22°C° 0 mm 3 m/s 656 mmHg 41%
    14:00 +22°C° 0 mm 3 m/s 656 mmHg 41%
    15:00 +22°C° 0 mm 3 m/s 655 mmHg 41%
    16:00 +22°C° 0 mm 3 m/s 655 mmHg 42%
    17:00 +21°C° 0 mm 3 m/s 655 mmHg 47%
    18:00 +20°C° 0 mm 2 m/s 654 mmHg 52%
    19:00 +19°C° 0 mm 2 m/s 654 mmHg 57%
    20:00 +19°C° 0 mm 1 m/s 654 mmHg 59%
    21:00 +19°C° 0 mm 1 m/s 654 mmHg 62%
    22:00 +16°C° 0 mm 0 m/s 654 mmHg 64%
    23:00 +16°C° 0 mm 0 m/s 654 mmHg 64%

    23 Avril, Mardi

    Heure Température Précipitation Vent Pression Humidité
    00:00 +18°C° 0 mm 1 m/s 653 mmHg 65%
    01:00 +18°C° 0 mm 1 m/s 653 mmHg 65%
    02:00 +16°C° 0.1 mm 1 m/s 653 mmHg 66%
    03:00 +16°C° 0.1 mm 2 m/s 653 mmHg 68%
    04:00 +16°C° 0.1 mm 2 m/s 653 mmHg 69%
    05:00 +17°C° 0.7 mm 3 m/s 653 mmHg 69%
    06:00 +17°C° 0.7 mm 3 m/s 653 mmHg 69%
    07:00 +17°C° 0.7 mm 3 m/s 654 mmHg 69%
    08:00 +19°C° 0.3 mm 3 m/s 654 mmHg 58%
    09:00 +21°C° 0.3 mm 3 m/s 654 mmHg 48%
    10:00 +25°C° 0.3 mm 3 m/s 655 mmHg 37%
    11:00 +26°C° 0 mm 3 m/s 655 mmHg 34%
    12:00 +27°C° 0 mm 3 m/s 654 mmHg 32%
    13:00 +28°C° 0 mm 3 m/s 654 mmHg 29%
    14:00 +27°C° 0.1 mm 3 m/s 654 mmHg 32%
    15:00 +27°C° 0.1 mm 3 m/s 653 mmHg 34%
    16:00 +26°C° 0.1 mm 4 m/s 653 mmHg 37%
    17:00 +25°C° 0.3 mm 3 m/s 652 mmHg 42%
    18:00 +24°C° 0.3 mm 2 m/s 652 mmHg 47%
    19:00 +23°C° 0.3 mm 1 m/s 652 mmHg 52%
    20:00 +23°C° 0.2 mm 2 m/s 652 mmHg 52%
    21:00 +21°C° 0.2 mm 3 m/s 651 mmHg 52%
    22:00 +21°C° 0.2 mm 5 m/s 651 mmHg 53%
    23:00 +21°C° 0.1 mm 4 m/s 651 mmHg 53%

    24 Avril, Mercredi

    Heure Température Précipitation Vent Pression Humidité
    00:00 +20°C° 0.1 mm 3 m/s 650 mmHg 54%
    01:00 +20°C° 0.1 mm 3 m/s 650 mmHg 54%
    02:00 +18°C° 0.4 mm 3 m/s 650 mmHg 63%
    03:00 +17°C° 0.4 mm 2 m/s 650 mmHg 71%
    04:00 +16°C° 0.4 mm 2 m/s 649 mmHg 79%
    05:00 +16°C° 0.3 mm 2 m/s 650 mmHg 78%
    06:00 +17°C° 0.3 mm 2 m/s 651 mmHg 77%
    07:00 +17°C° 0.3 mm 2 m/s 651 mmHg 75%
    08:00 +17°C° 0.1 mm 3 m/s 652 mmHg 74%
    09:00 +18°C° 0.1 mm 4 m/s 652 mmHg 73%
    10:00 +17°C° 0.1 mm 6 m/s 653 mmHg 72%
    11:00 +15°C° 0.4 mm 6 m/s 652 mmHg 74%
    12:00 +13°C° 0.4 mm 6 m/s 652 mmHg 77%
    13:00 +10°C° 0.4 mm 6 m/s 651 mmHg 79%
    14:00 +9°C° 0.5 mm 6 m/s 651 mmHg 81%
    15:00 +8°C° 0.5 mm 6 m/s 652 mmHg 82%
    16:00 +5°C° 0.5 mm 7 m/s 652 mmHg 83%
    17:00 +5°C° 0.1 mm 6 m/s 653 mmHg 83%
    18:00 +5°C° 0.1 mm 6 m/s 654 mmHg 82%
    19:00 +4°C° 0.1 mm 6 m/s 654 mmHg 82%
    20:00 +4°C° 0.1 mm 6 m/s 655 mmHg 82%
    21:00 +5°C° 0.1 mm 5 m/s 656 mmHg 82%
    22:00 +3°C° 0.1 mm 5 m/s 656 mmHg 82%
    23:00 +3°C° 0.1 mm 5 m/s 656 mmHg 83%
    Voir plus